TimeMST,TemperatureF,Dew PointF,Humidity,Sea Level PressureIn,VisibilityMPH,Wind Direction,Wind SpeedMPH,Gust SpeedMPH,PrecipitationIn,Events,Conditions,WindDirDegrees,DateUTC
12:53 AM,16.0,7.0,68,30.03,10.0,NW,20.7,27.6,N/A,,Clear,320,2012-12-09 07:53:00
1:53 AM,14.0,5.0,67,30.08,10.0,NW,21.9,31.1,N/A,,Partly Cloudy,320,2012-12-09 08:53:00
2:20 AM,12.2,3.2,67,30.00,10.0,NW,23.0,33.4,N/A,,Mostly Cloudy,320,2012-12-09 09:20:00
2:53 AM,12.0,3.9,70,30.14,10.0,NW,17.3,29.9,N/A,,Mostly Cloudy,310,2012-12-09 09:53:00
3:05 AM,12.2,3.2,67,30.02,10.0,NW,15.0,25.3,N/A,,Scattered Clouds,320,2012-12-09 10:05:00
3:53 AM,10.9,3.0,70,30.18,10.0,WNW,15.0,26.5,N/A,,Clear,300,2012-12-09 10:53:00
5:53 AM,10.9,3.0,70,30.27,10.0,NW,16.1,-,N/A,,Partly Cloudy,310,2012-12-09 12:53:00
6:53 AM,10.9,1.9,67,30.30,10.0,NW,16.1,23.0,N/A,,Clear,320,2012-12-09 13:53:00
7:53 AM,10.0,-0.0,64,30.33,10.0,NW,16.1,23.0,N/A,,Clear,310,2012-12-09 14:53:00
8:53 AM,12.0,-0.0,59,30.37,10.0,NW,13.8,-,N/A,,Partly Cloudy,320,2012-12-09 15:53:00
9:53 AM,14.0,1.0,56,30.40,10.0,NW,11.5,-,N/A,,Clear,310,2012-12-09 16:53:00
10:53 AM,16.0,1.0,52,30.40,10.0,NW,15.0,-,N/A,,Clear,320,2012-12-09 17:53:00
11:53 AM,19.0,1.0,46,30.37,10.0,NNW,12.7,21.9,N/A,,Clear,330,2012-12-09 18:53:00
12:53 PM,19.9,1.0,44,30.35,10.0,NNW,16.1,21.9,N/A,,Clear,340,2012-12-09 19:53:00
1:53 PM,19.9,1.9,46,30.35,10.0,NNW,11.5,24.2,N/A,,Clear,340,2012-12-09 20:53:00
2:53 PM,19.0,1.9,47,30.37,10.0,NNW,10.4,-,N/A,,Clear,340,2012-12-09 21:53:00
3:53 PM,17.1,1.9,52,30.38,10.0,NW,9.2,-,N/A,,Clear,320,2012-12-09 22:53:00
4:53 PM,14.0,1.0,56,30.37,10.0,NNW,4.6,-,N/A,,Clear,340,2012-12-09 23:53:00
5:53 PM,12.0,1.9,64,30.37,10.0,WSW,3.5,-,N/A,,Clear,240,2012-12-10 00:53:00
6:53 PM,12.0,1.9,64,30.35,10.0,Calm,Calm,-,N/A,,Clear,0,2012-12-10 01:53:00
7:53 PM,7.0,-0.0,73,30.34,10.0,South,3.5,-,N/A,,Clear,170,2012-12-10 02:53:00
8:53 PM,1.9,-4.0,76,30.32,10.0,Calm,Calm,-,N/A,,Clear,0,2012-12-10 03:53:00
9:53 PM,6.1,-0.9,73,30.26,10.0,SE,8.1,-,N/A,,Clear,130,2012-12-10 04:53:00
10:53 PM,3.0,-2.0,80,30.22,10.0,ESE,6.9,-,N/A,,Clear,120,2012-12-10 05:53:00
11:53 PM,1.0,-5.1,75,30.18,10.0,ESE,5.8,-,N/A,,Clear,110,2012-12-10 06:53:00